Location: Guferjoch
(46.7462°N, 8.4506°E)
Time: 23:52:21
(UTC+00:00)

Cosmos 1741 Rocket - Pass Details

Date: 14 July 2020
Orbit: 761 x 783 km, 74.0° (Epoch: 14 August)

Event Time Altitude Azimuth Distance (km) Brightness Sun altitude
Exits shadow 03:04:20 - 217° (SW) 2,511 6.0 -6.6°
Reaches altitude 10° 03:04:56 10° 218° (SW) 2,289 5.8 -6.5°
Maximum altitude 03:10:01 55° 296° (WNW) 916 4.3 -5.8°
Drops below altitude 10° 03:15:10 10° 15° (NNE) 2,311 7.4 -5.2°
Sets 03:17:36 0° 19° (NNE) 3,244 8.4 -4.8°
